Погода в Дедовичах

Россия / Псковская область     57°32′55″N   29°56′42″E
темп.,
°C
ветер,
м/с
пор.,
м/с
влажн.,
%
обл.,
%
осадки,
мм/ч
давл.,
гПа
погр.,
м
10 мая, пн
пн1000:00+4ююз367264 0.0 102284
03:00+3ю397797 0.0 1023150
06:00+4ю41373100 0.0 1023334
09:00+8ю5126890 0.0 1024447
12:00+15ююз795341 0.0 1024949
15:00+17ююз685248 0.0 10231318
18:00+17ю47615 0.0 1023944
21:00+11ююв398596 0.0 1025158
11 мая, вт
вт1100:00+9ю3118866 0.0 1026204
03:00+7ю3991100 0.0 1027166
06:00+7ю388875 0.0 1027174
09:00+13ю466481 0.0 1027418
12:00+17ю464710 0.0 1027941
15:00+19ююв354487 0.0 10261180
18:00+19юв35565 0.0 1025642
21:00+13юв22759 0.0 102420
12 мая, ср
ср1200:00+10ююв310796 0.0 1025171
03:00+8ююв368230 0.0 102588
06:00+9юв238551 0.0 102564
09:00+15юв357333 0.0 1025418
12:00+20вюв356316 0.0 10241148
15:00+21вюв356499 0.2 10221188
18:00+19св247674 0.7 1020270
21:00+14всв3109066 1.4 1018215
13 мая, чт
чт1300:00+14вюв4139192 0.5 1017575
03:00+12юв611923 0.6 1018691
06:00+7вюв38960 0.0 1019341
09:00+12в5107713 0.0 1018652
12:00+16юв61056100 0.1 10161954
15:00+11юв4108861 0.8 1016710
18:00+14ююв5107446 0.6 10161384
21:00+10юв378093 0.6 1016125
14 мая, пт
пт1400:00+8вюв388912 0.0 1016143
03:00+8вюв3109179 0.0 1016189
06:00+9вюв31090100 0.0 1015246
09:00+14вюв5974100 0.0 1014474
12:00+19вюв686485 0.0 10121003
15:00+20вюв61070100 1.0 10111622
18:00+15в5129186 2.4 1009485
21:00+14вюв51196100 3.9 1007564